Middletown Regional/Hook Field (MWO)

 

Airport Diagram
No Airport Diagram Available
Current Weather/Forecast (VFR Conditions)
METAR KMWO 280515Z AUTO 36010KT 10SM SCT027 OVC100 M03/M08 A3038 RMK AO2 T10321080
TAF

Airport Information

All Charts
General
Chart Name View
TAKEOFF MINIMUMS
ALTERNATE MINIMUMS
TAKEOFF MINIMUMS
ALTERNATE MINIMUMS

Arrivals
Chart Name Download
DANEI THREE
DANEI THREE

Approaches
Chart Name Download
RNAV (GPS) RWY 05
RNAV (GPS) RWY 23
LOC RWY 23
NDB RWY 23
NDB-A
RNAV (GPS) RWY 05
RNAV (GPS) RWY 23
LOC RWY 23


Airport Statistics
Departures Arrivals Local
All Collected Stats since June 2016: 2 1 0
2021 Stats: 1 0 0
January Stats: 1 0 0

Inbound Traffic (Arrivals) - 0

No inbound traffic.


Outbound Traffic (Departures) - 0

No outbound traffic.


Local Traffic (Pattern) - 0

No local traffic.